Location: Bonny Doon Airfield
(37.0704°N, 122.1252°W)
Time: 14:26:32
(UTC-08:00)

Vanguard 1 Rocket - Pass Details

Date: 28 October 2017
Orbit: 655 x 4222 km, 34.3° (Epoch: 23 November)

Event Time Altitude Azimuth Distance (km) Brightness Sun altitude
Rises 03:39:53 0° 219° (SW) 7,990 - -45.8°
Reaches altitude 10° 03:46:37 10° 212° (SSW) 6,519 - -44.5°
Exits shadow 03:58:41 32° 181° (S) 3,882 10.3 -42.2°
Maximum altitude 04:02:42 36° 155° (SSE) 3,291 10.1 -41.5°
Drops below altitude 10° 04:11:56 10° 93° (E) 3,790 11.2 -39.7°
Sets 04:14:39 0° 84° (E) 4,418 11.8 -39.2°
